STARLINK-4487 (53531 NORAD) Tracking and Keplerian Element Data

This shows tracking and keplerian element data for the satellite.

Feedback or suggestion? Click here.




ElementValue
Catalog53531
NameSTARLINK-4487
Epoch Orbit1430
Epoch Day325.06031537
Epoch Year2022
RAAN81.9093
Inclination53.2171
Eccentricity0.0001795
Argument of Perigee48.3774
Mean Anonmoly311.7372
Mean Motion15.08841002
Decay Rate-2.81E-06
L11 53531U 22101E 22325.06031537 -.00000281 00000+0 42601-6 0 9992
L22 53531 53.2171 81.9093 0001795 48.3774 311.7372 15.08841002 14304



Live tracking and technical data element details for STARLINK-4487 (NORAD 53531). STARLINK-4487 can be tracked NOW for your location showing map with azimuth and elevation plus other details from your city location.







IsCatalogInMostPopularTable: catalog: 53531, numindb: 3
Update: records affected: 1



GetName: 53531 STARLINK-4487

Hit Count: updated at: Thu, 08 Dec 2022 09:36:31 GMT